Time,TemperatureF,DewpointF,PressureIn,WindDirection,WindDirectionDegrees,WindSpeedMPH,WindSpeedGustMPH,Humidity,HourlyPrecipIn,Conditions,Clouds,dailyrainin,SoftwareType,DateUTC
2013-08-28 00:00:00,66.5,65.6,30.03,SE,129,0.0,5.0,97,0.00,,,0.00,Wunderground v.1.15,2013-08-28 04:00:00,
2013-08-28 00:05:00,66.5,65.6,30.03,SE,129,0.0,5.0,97,0.00,,,0.00,Wunderground v.1.15,2013-08-28 04:05:00,
2013-08-28 00:10:00,66.4,65.5,30.03,SE,130,0.0,5.0,97,0.00,,,0.00,Wunderground v.1.15,2013-08-28 04:10:00,
2013-08-28 00:15:00,66.4,65.5,30.03,SE,129,0.0,5.0,97,0.00,,,0.00,Wunderground v.1.15,2013-08-28 04:15:00,
2013-08-28 00:20:00,66.4,65.5,30.03,SE,130,0.0,5.0,97,0.00,,,0.00,Wunderground v.1.15,2013-08-28 04:20:00,
2013-08-28 00:25:00,66.3,65.4,30.03,SE,129,0.0,5.0,97,0.00,,,0.00,Wunderground v.1.15,2013-08-28 04:25:00,
2013-08-28 00:30:00,66.3,65.4,30.03,SE,129,0.0,5.0,97,0.00,,,0.00,Wunderground v.1.15,2013-08-28 04:30:00,
2013-08-28 00:35:00,66.3,65.4,30.02,SE,129,0.0,5.0,97,0.00,,,0.00,Wunderground v.1.15,2013-08-28 04:35:00,
2013-08-28 00:40:00,66.2,65.3,30.02,SE,129,0.0,5.0,97,0.00,,,0.00,Wunderground v.1.15,2013-08-28 04:40:00,
2013-08-28 00:45:00,66.2,65.3,30.02,SE,129,0.0,5.0,97,0.00,,,0.00,Wunderground v.1.15,2013-08-28 04:45:00,
2013-08-28 00:50:00,66.1,65.2,30.02,SE,129,0.0,5.0,97,0.00,,,0.00,Wunderground v.1.15,2013-08-28 04:50:00,
2013-08-28 00:55:00,66.1,65.2,30.02,SE,130,0.0,5.0,97,0.00,,,0.00,Wunderground v.1.15,2013-08-28 04:55:00,
2013-08-28 01:00:00,66.0,65.1,30.02,SE,129,0.0,5.0,97,0.00,,,0.00,Wunderground v.1.15,2013-08-28 05:00:00,
2013-08-28 01:05:00,66.0,65.1,30.02,SE,129,0.0,5.0,97,0.00,,,0.00,Wunderground v.1.15,2013-08-28 05:05:00,
2013-08-28 01:10:00,66.0,65.1,30.02,SE,129,0.0,5.0,97,0.00,,,0.00,Wunderground v.1.15,2013-08-28 05:10:00,
2013-08-28 01:15:00,66.0,65.1,30.02,SE,129,0.0,5.0,97,0.00,,,0.00,Wunderground v.1.15,2013-08-28 05:15:00,
2013-08-28 01:20:00,66.0,65.1,30.02,SE,129,0.0,5.0,97,0.00,,,0.00,Wunderground v.1.15,2013-08-28 05:20:00,
2013-08-28 01:25:00,66.0,65.1,30.02,SE,130,0.0,5.0,97,0.00,,,0.00,Wunderground v.1.15,2013-08-28 05:25:00,
2013-08-28 01:30:00,66.0,65.1,30.02,SE,129,0.0,5.0,97,0.00,,,0.00,Wunderground v.1.15,2013-08-28 05:30:00,
2013-08-28 01:35:00,65.8,64.9,30.02,SE,129,0.0,5.0,97,0.00,,,0.00,Wunderground v.1.15,2013-08-28 05:35:00,
2013-08-28 01:40:00,65.7,64.8,30.02,SE,129,0.0,5.0,97,0.00,,,0.00,Wunderground v.1.15,2013-08-28 05:40:00,
2013-08-28 01:45:00,65.6,64.7,30.02,SE,129,0.0,5.0,97,0.00,,,0.00,Wunderground v.1.15,2013-08-28 05:45:00,
2013-08-28 01:50:00,65.6,64.7,30.02,SE,129,0.0,5.0,97,0.00,,,0.00,Wunderground v.1.15,2013-08-28 05:50:00,
2013-08-28 01:55:00,65.5,64.6,30.01,SE,129,0.0,5.0,97,0.00,,,0.00,Wunderground v.1.15,2013-08-28 05:55:00,
2013-08-28 02:00:00,65.4,64.5,30.01,SE,129,0.0,5.0,97,0.00,,,0.00,Wunderground v.1.15,2013-08-28 06:00:00,
2013-08-28 02:05:00,65.3,64.4,30.01,SE,129,0.0,5.0,97,0.00,,,0.00,Wunderground v.1.15,2013-08-28 06:05:00,
2013-08-28 02:10:00,65.2,64.3,30.01,SE,129,0.0,5.0,97,0.00,,,0.00,Wunderground v.1.15,2013-08-28 06:10:00,
2013-08-28 02:15:00,65.2,64.3,30.01,SE,129,0.0,5.0,97,0.00,,,0.00,Wunderground v.1.15,2013-08-28 06:15:00,
2013-08-28 02:20:00,65.2,64.3,30.00,SE,129,0.0,5.0,97,0.00,,,0.00,Wunderground v.1.15,2013-08-28 06:20:00,
2013-08-28 02:25:00,65.2,64.3,30.00,SE,129,0.0,5.0,97,0.00,,,0.00,Wunderground v.1.15,2013-08-28 06:25:00,
2013-08-28 02:30:00,65.2,64.3,30.00,SE,130,0.0,5.0,97,0.00,,,0.00,Wunderground v.1.15,2013-08-28 06:30:00,
2013-08-28 02:35:00,65.2,64.3,30.00,SE,129,0.0,5.0,97,0.00,,,0.00,Wunderground v.1.15,2013-08-28 06:35:00,
2013-08-28 02:45:00,65.1,64.2,30.00,SE,129,0.0,5.0,97,0.00,,,0.00,Wunderground v.1.15,2013-08-28 06:45:00,
2013-08-28 02:50:00,65.0,64.1,30.00,SE,129,0.0,5.0,97,0.00,,,0.00,Wunderground v.1.15,2013-08-28 06:50:00,
2013-08-28 02:55:00,65.0,64.1,29.99,SE,129,0.0,5.0,97,0.00,,,0.00,Wunderground v.1.15,2013-08-28 06:55:00,
2013-08-28 03:00:00,65.0,64.1,29.99,SE,129,0.0,5.0,97,0.00,,,0.00,Wunderground v.1.15,2013-08-28 07:00:00,
2013-08-28 03:05:00,64.9,64.0,29.99,SE,129,0.0,5.0,97,0.00,,,0.00,Wunderground v.1.15,2013-08-28 07:05:00,
2013-08-28 03:10:00,64.9,64.0,29.99,SE,129,0.0,5.0,97,0.00,,,0.00,Wunderground v.1.15,2013-08-28 07:10:00,
2013-08-28 03:15:00,64.9,64.0,29.99,SE,129,0.0,5.0,97,0.00,,,0.00,Wunderground v.1.15,2013-08-28 07:15:00,
2013-08-28 03:20:00,64.9,64.3,29.99,SE,129,0.0,5.0,98,0.00,,,0.00,Wunderground v.1.15,2013-08-28 07:20:00,
2013-08-28 03:25:00,64.9,64.3,29.98,SE,130,0.0,5.0,98,0.00,,,0.00,Wunderground v.1.15,2013-08-28 07:25:00,
2013-08-28 03:30:00,64.9,64.3,29.98,SE,129,0.0,5.0,98,0.00,,,0.00,Wunderground v.1.15,2013-08-28 07:30:00,
2013-08-28 03:35:00,64.9,64.3,29.98,SE,129,0.0,5.0,98,0.00,,,0.00,Wunderground v.1.15,2013-08-28 07:35:00,
2013-08-28 03:40:00,64.9,64.3,29.98,SE,129,0.0,5.0,98,0.00,,,0.00,Wunderground v.1.15,2013-08-28 07:40:00,
2013-08-28 03:50:00,65.0,64.4,29.98,SE,130,0.0,5.0,98,0.00,,,0.00,Wunderground v.1.15,2013-08-28 07:50:00,
2013-08-28 03:55:00,65.0,64.4,29.98,SE,129,0.0,5.0,98,0.00,,,0.00,Wunderground v.1.15,2013-08-28 07:55:00,
2013-08-28 04:00:00,65.1,64.5,29.98,SE,130,0.0,5.0,98,0.00,,,0.00,Wunderground v.1.15,2013-08-28 08:00:00,
2013-08-28 04:05:00,65.1,64.5,29.97,SE,129,0.0,5.0,98,0.00,,,0.00,Wunderground v.1.15,2013-08-28 08:05:00,
2013-08-28 04:10:00,65.1,64.5,29.97,SE,129,0.0,5.0,98,0.00,,,0.00,Wunderground v.1.15,2013-08-28 08:10:00,
2013-08-28 04:15:00,65.0,64.4,29.97,SE,130,0.0,5.0,98,0.00,,,0.00,Wunderground v.1.15,2013-08-28 08:15:00,
2013-08-28 04:20:00,65.0,64.4,29.97,SE,129,0.0,5.0,98,0.00,,,0.00,Wunderground v.1.15,2013-08-28 08:20:00,
2013-08-28 04:25:00,65.1,64.5,29.97,SE,129,0.0,5.0,98,0.00,,,0.00,Wunderground v.1.15,2013-08-28 08:25:00,
2013-08-28 04:30:00,65.0,64.4,29.97,SE,129,0.0,5.0,98,0.00,,,0.00,Wunderground v.1.15,2013-08-28 08:30:00,
2013-08-28 04:35:00,65.1,64.5,29.97,SE,129,0.0,5.0,98,0.00,,,0.00,Wunderground v.1.15,2013-08-28 08:35:00,
2013-08-28 04:40:00,65.0,64.4,29.97,SE,129,0.0,5.0,98,0.00,,,0.00,Wunderground v.1.15,2013-08-28 08:40:00,
2013-08-28 04:45:00,65.0,64.4,29.97,SE,129,0.0,5.0,98,0.00,,,0.00,Wunderground v.1.15,2013-08-28 08:45:00,
2013-08-28 04:50:00,65.1,64.5,29.97,SE,129,0.0,5.0,98,0.00,,,0.00,Wunderground v.1.15,2013-08-28 08:50:00,
2013-08-28 04:55:00,65.1,64.5,29.97,SE,129,0.0,5.0,98,0.00,,,0.00,Wunderground v.1.15,2013-08-28 08:55:00,
2013-08-28 05:00:00,65.1,64.5,29.98,SE,130,0.0,5.0,98,0.00,,,0.00,Wunderground v.1.15,2013-08-28 09:00:00,
2013-08-28 05:10:00,65.0,64.4,29.98,SE,130,0.0,5.0,98,0.00,,,0.00,Wunderground v.1.15,2013-08-28 09:10:00,
2013-08-28 05:15:00,64.9,64.3,29.98,SE,129,0.0,5.0,98,0.00,,,0.00,Wunderground v.1.15,2013-08-28 09:15:00,
2013-08-28 05:20:00,64.9,64.3,29.98,SE,129,0.0,5.0,98,0.00,,,0.00,Wunderground v.1.15,2013-08-28 09:20:00,
2013-08-28 05:25:00,64.9,64.3,29.98,SE,129,0.0,5.0,98,0.00,,,0.00,Wunderground v.1.15,2013-08-28 09:25:00,
2013-08-28 05:30:00,64.9,64.3,29.98,SE,130,0.0,5.0,98,0.00,,,0.00,Wunderground v.1.15,2013-08-28 09:30:00,
2013-08-28 05:35:00,64.8,64.2,29.98,SE,129,0.0,5.0,98,0.00,,,0.00,Wunderground v.1.15,2013-08-28 09:35:00,
2013-08-28 05:40:00,64.7,64.1,29.98,SE,129,0.0,5.0,98,0.00,,,0.00,Wunderground v.1.15,2013-08-28 09:40:00,
2013-08-28 05:50:00,64.7,64.1,29.98,SE,129,0.0,5.0,98,0.00,,,0.00,Wunderground v.1.15,2013-08-28 09:50:00,
2013-08-28 05:55:00,64.6,64.0,29.98,SE,129,0.0,5.0,98,0.00,,,0.00,Wunderground v.1.15,2013-08-28 09:55:00,
2013-08-28 06:00:00,64.7,64.1,29.98,SE,129,0.0,5.0,98,0.00,,,0.00,Wunderground v.1.15,2013-08-28 10:00:00,
2013-08-28 06:05:00,64.8,64.2,29.98,SE,130,0.0,5.0,98,0.00,,,0.00,Wunderground v.1.15,2013-08-28 10:05:00,
2013-08-28 06:10:00,64.7,64.1,29.98,SE,130,0.0,5.0,98,0.00,,,0.00,Wunderground v.1.15,2013-08-28 10:10:00,
2013-08-28 06:15:00,64.7,64.1,29.98,SE,130,0.0,5.0,98,0.00,,,0.00,Wunderground v.1.15,2013-08-28 10:15:00,
2013-08-28 06:20:00,64.7,64.1,29.98,SE,129,0.0,5.0,98,0.00,,,0.00,Wunderground v.1.15,2013-08-28 10:20:00,
2013-08-28 06:25:00,64.7,64.1,29.99,SE,130,0.0,5.0,98,0.00,,,0.00,Wunderground v.1.15,2013-08-28 10:25:00,
2013-08-28 06:30:00,64.7,64.1,29.99,SE,130,0.0,5.0,98,0.00,,,0.00,Wunderground v.1.15,2013-08-28 10:30:00,
2013-08-28 06:35:00,64.7,64.1,29.99,SE,129,0.0,5.0,98,0.00,,,0.00,Wunderground v.1.15,2013-08-28 10:35:00,
2013-08-28 06:45:00,64.8,64.2,29.99,SE,129,0.0,5.0,98,0.00,,,0.00,Wunderground v.1.15,2013-08-28 10:45:00,
2013-08-28 06:50:00,64.8,64.2,29.99,SE,130,0.0,5.0,98,0.00,,,0.00,Wunderground v.1.15,2013-08-28 10:50:00,
2013-08-28 07:00:00,64.8,64.2,29.99,SE,130,0.0,5.0,98,0.00,,,0.00,Wunderground v.1.15,2013-08-28 11:00:00,
2013-08-28 07:10:00,64.9,64.3,29.99,SE,129,0.0,5.0,98,0.00,,,0.00,Wunderground v.1.15,2013-08-28 11:10:00,
2013-08-28 07:15:00,64.9,64.3,29.99,SE,129,0.0,5.0,98,0.00,,,0.00,Wunderground v.1.15,2013-08-28 11:15:00,
2013-08-28 07:25:00,64.9,64.3,30.00,SE,129,0.0,5.0,98,0.00,,,0.00,Wunderground v.1.15,2013-08-28 11:25:00,
2013-08-28 07:30:00,65.0,64.4,29.99,SE,130,0.0,5.0,98,0.00,,,0.01,Wunderground v.1.15,2013-08-28 11:30:00,
2013-08-28 07:35:00,64.9,64.3,29.99,SE,129,0.0,5.0,98,0.00,,,0.01,Wunderground v.1.15,2013-08-28 11:35:00,
2013-08-28 07:40:00,65.0,64.4,29.99,SE,129,0.0,5.0,98,0.00,,,0.01,Wunderground v.1.15,2013-08-28 11:40:00,
2013-08-28 07:45:00,65.1,64.5,30.00,SE,132,0.0,5.0,98,0.00,,,0.01,Wunderground v.1.15,2013-08-28 11:45:00,
2013-08-28 07:50:00,65.1,64.5,30.00,SE,133,0.0,5.0,98,0.00,,,0.01,Wunderground v.1.15,2013-08-28 11:50:00,
2013-08-28 07:55:00,65.2,64.6,30.00,SE,132,0.0,5.0,98,0.00,,,0.01,Wunderground v.1.15,2013-08-28 11:55:00,
2013-08-28 08:00:00,65.4,64.8,30.00,South,172,0.0,5.0,98,0.00,,,0.01,Wunderground v.1.15,2013-08-28 12:00:00,
2013-08-28 08:05:00,65.4,64.8,30.00,SE,144,0.0,5.0,98,0.00,,,0.01,Wunderground v.1.15,2013-08-28 12:05:00,
2013-08-28 08:15:00,65.6,65.0,30.00,SE,143,0.0,5.0,98,0.00,,,0.01,Wunderground v.1.15,2013-08-28 12:15:00,
2013-08-28 08:20:00,65.8,65.2,30.00,SE,142,0.0,5.0,98,0.00,,,0.01,Wunderground v.1.15,2013-08-28 12:20:00,
2013-08-28 08:30:00,66.2,65.6,30.00,SE,143,0.0,5.0,98,0.00,,,0.01,Wunderground v.1.15,2013-08-28 12:30:00,
2013-08-28 08:35:00,66.5,65.9,30.00,SE,142,0.0,5.0,98,0.00,,,0.01,Wunderground v.1.15,2013-08-28 12:35:00,
2013-08-28 08:40:00,66.8,66.2,30.00,SE,143,0.0,5.0,98,0.00,,,0.01,Wunderground v.1.15,2013-08-28 12:40:00,
2013-08-28 08:45:00,67.1,66.5,30.00,SE,141,0.0,5.0,98,0.00,,,0.01,Wunderground v.1.15,2013-08-28 12:45:00,
2013-08-28 08:50:00,67.2,66.6,30.00,SE,139,0.0,5.0,98,0.00,,,0.01,Wunderground v.1.15,2013-08-28 12:50:00,
2013-08-28 08:55:00,67.4,66.5,30.00,SE,139,0.0,5.0,97,0.00,,,0.01,Wunderground v.1.15,2013-08-28 12:55:00,
2013-08-28 09:00:00,67.5,66.6,29.99,SE,145,0.0,5.0,97,0.00,,,0.01,Wunderground v.1.15,2013-08-28 13:00:00,
2013-08-28 09:10:00,68.1,67.2,30.00,SE,146,0.0,5.0,97,0.00,,,0.01,Wunderground v.1.15,2013-08-28 13:10:00,
2013-08-28 09:15:00,68.3,67.4,29.99,SSE,148,0.0,5.0,97,0.00,,,0.01,Wunderground v.1.15,2013-08-28 13:15:00,
2013-08-28 09:20:00,68.5,67.3,29.99,SSE,152,0.0,5.0,96,0.00,,,0.01,Wunderground v.1.15,2013-08-28 13:20:00,
2013-08-28 09:25:00,68.9,67.7,29.99,SSE,149,0.0,5.0,96,0.00,,,0.01,Wunderground v.1.15,2013-08-28 13:25:00,
2013-08-28 09:30:00,69.3,68.1,29.99,SSE,149,0.0,5.0,96,0.00,,,0.01,Wunderground v.1.15,2013-08-28 13:30:00,
2013-08-28 09:35:00,69.6,68.1,29.99,SSE,148,0.0,5.0,95,0.00,,,0.01,Wunderground v.1.15,2013-08-28 13:35:00,
2013-08-28 09:40:00,69.8,68.0,29.99,SE,145,0.0,5.0,94,0.00,,,0.01,Wunderground v.1.15,2013-08-28 13:40:00,
2013-08-28 09:50:00,70.4,68.3,29.99,SSE,167,0.0,5.0,93,0.00,,,0.01,Wunderground v.1.15,2013-08-28 13:50:00,
2013-08-28 09:55:00,70.8,68.7,29.99,SW,215,0.0,5.0,93,0.00,,,0.01,Wunderground v.1.15,2013-08-28 13:55:00,
2013-08-28 10:00:00,71.4,69.0,29.99,SSE,152,0.0,5.0,92,0.00,,,0.01,Wunderground v.1.15,2013-08-28 14:00:00,
2013-08-28 10:05:00,72.0,69.2,29.99,West,274,0.0,5.0,91,0.00,,,0.01,Wunderground v.1.15,2013-08-28 14:05:00,
2013-08-28 10:10:00,72.2,68.8,29.99,SW,229,0.0,5.0,89,0.00,,,0.01,Wunderground v.1.15,2013-08-28 14:10:00,
2013-08-28 10:15:00,72.4,69.0,30.00,West,259,0.0,5.0,89,0.00,,,0.01,Wunderground v.1.15,2013-08-28 14:15:00,
2013-08-28 10:20:00,72.7,68.9,30.00,West,260,0.0,5.0,88,0.00,,,0.01,Wunderground v.1.15,2013-08-28 14:20:00,
2013-08-28 10:25:00,72.9,69.1,30.00,West,267,0.0,5.0,88,0.00,,,0.01,Wunderground v.1.15,2013-08-28 14:25:00,
2013-08-28 10:30:00,73.3,69.5,30.00,WSW,242,0.0,5.0,88,0.00,,,0.01,Wunderground v.1.15,2013-08-28 14:30:00,
2013-08-28 10:35:00,73.7,69.6,30.00,West,276,0.0,5.0,87,0.00,,,0.01,Wunderground v.1.15,2013-08-28 14:35:00,
2013-08-28 10:40:00,74.0,69.9,30.00,SW,219,0.0,5.0,87,0.00,,,0.01,Wunderground v.1.15,2013-08-28 14:40:00,
2013-08-28 10:45:00,74.3,69.8,30.00,West,260,0.0,5.0,86,0.00,,,0.01,Wunderground v.1.15,2013-08-28 14:45:00,
2013-08-28 10:50:00,74.9,70.4,30.00,WSW,250,0.0,5.0,86,0.00,,,0.01,Wunderground v.1.15,2013-08-28 14:50:00,
2013-08-28 10:55:00,75.5,70.3,30.00,SSE,159,0.0,5.0,84,0.00,,,0.01,Wunderground v.1.15,2013-08-28 14:55:00,
2013-08-28 11:00:00,75.9,70.4,30.00,WSW,243,0.0,5.0,83,0.00,,,0.01,Wunderground v.1.15,2013-08-28 15:00:00,
2013-08-28 11:05:00,76.4,70.9,30.00,West,267,0.0,5.0,83,0.00,,,0.01,Wunderground v.1.15,2013-08-28 15:05:00,
2013-08-28 11:10:00,76.7,70.8,30.00,WSW,257,0.0,5.0,82,0.00,,,0.01,Wunderground v.1.15,2013-08-28 15:10:00,
2013-08-28 11:15:00,77.0,71.1,30.00,WSW,238,0.0,5.0,82,0.00,,,0.01,Wunderground v.1.15,2013-08-28 15:15:00,
2013-08-28 11:20:00,77.4,70.7,30.00,SW,221,0.0,5.0,80,0.00,,,0.01,Wunderground v.1.15,2013-08-28 15:20:00,
2013-08-28 11:25:00,77.5,70.8,30.00,WSW,248,0.0,5.0,80,0.00,,,0.01,Wunderground v.1.15,2013-08-28 15:25:00,
2013-08-28 11:30:00,77.0,70.7,30.00,WNW,293,0.0,5.0,81,0.00,,,0.01,Wunderground v.1.15,2013-08-28 15:30:00,
2013-08-28 11:35:00,76.7,70.8,30.00,WSW,257,0.0,5.0,82,0.00,,,0.01,Wunderground v.1.15,2013-08-28 15:35:00,
2013-08-28 11:40:00,76.6,70.7,30.00,WSW,238,0.0,5.0,82,0.00,,,0.01,Wunderground v.1.15,2013-08-28 15:40:00,
2013-08-28 11:45:00,76.7,70.8,30.00,WSW,239,0.0,5.0,82,0.00,,,0.01,Wunderground v.1.15,2013-08-28 15:45:00,
2013-08-28 11:50:00,77.0,71.1,30.00,SE,136,0.0,5.0,82,0.00,,,0.01,Wunderground v.1.15,2013-08-28 15:50:00,
2013-08-28 11:55:00,76.9,70.3,30.00,WSW,238,0.0,5.0,80,0.00,,,0.01,Wunderground v.1.15,2013-08-28 15:55:00,
2013-08-28 12:00:00,76.3,70.0,30.00,WSW,245,0.0,5.0,81,0.00,,,0.01,Wunderground v.1.15,2013-08-28 16:00:00,
2013-08-28 12:05:00,76.1,69.8,30.00,WSW,250,0.0,5.0,81,0.00,,,0.01,Wunderground v.1.15,2013-08-28 16:05:00,
2013-08-28 12:10:00,75.9,70.0,30.00,WSW,242,0.0,5.0,82,0.00,,,0.01,Wunderground v.1.15,2013-08-28 16:10:00,
2013-08-28 12:15:00,76.0,70.5,30.00,WSW,245,0.0,5.0,83,0.00,,,0.01,Wunderground v.1.15,2013-08-28 16:15:00,
2013-08-28 12:25:00,76.2,71.0,30.00,ESE,120,0.0,5.0,84,0.00,,,0.01,Wunderground v.1.15,2013-08-28 16:25:00,
2013-08-28 12:35:00,77.5,71.2,30.00,SSW,205,0.0,5.0,81,0.00,,,0.01,Wunderground v.1.15,2013-08-28 16:35:00,
2013-08-28 12:40:00,77.9,71.6,29.99,SW,215,0.0,5.0,81,0.00,,,0.01,Wunderground v.1.15,2013-08-28 16:40:00,
2013-08-28 12:45:00,78.4,71.7,29.99,SSE,147,0.0,5.0,80,0.00,,,0.01,Wunderground v.1.15,2013-08-28 16:45:00,
2013-08-28 12:50:00,78.7,71.6,29.99,SW,214,0.0,5.0,79,0.00,,,0.01,Wunderground v.1.15,2013-08-28 16:50:00,
2013-08-28 12:55:00,78.8,72.1,29.99,SW,225,0.0,5.0,80,0.00,,,0.01,Wunderground v.1.15,2013-08-28 16:55:00,
2013-08-28 13:00:00,78.5,70.7,29.99,SW,222,0.0,5.0,77,0.00,,,0.01,Wunderground v.1.15,2013-08-28 17:00:00,
2013-08-28 13:05:00,78.1,71.1,29.99,SE,134,0.0,5.0,79,0.00,,,0.01,Wunderground v.1.15,2013-08-28 17:05:00,
2013-08-28 13:10:00,78.3,71.2,29.99,SW,231,0.0,5.0,79,0.00,,,0.01,Wunderground v.1.15,2013-08-28 17:10:00,
2013-08-28 13:15:00,78.6,71.5,29.99,SW,236,0.0,5.0,79,0.00,,,0.01,Wunderground v.1.15,2013-08-28 17:15:00,
2013-08-28 13:20:00,78.6,70.8,29.99,SW,226,0.0,5.0,77,0.00,,,0.01,Wunderground v.1.15,2013-08-28 17:20:00,
2013-08-28 13:25:00,78.5,71.1,29.98,SSE,168,0.0,5.0,78,0.00,,,0.01,Wunderground v.1.15,2013-08-28 17:25:00,
2013-08-28 13:30:00,78.2,70.8,29.98,SW,228,0.0,5.0,78,0.00,,,0.01,Wunderground v.1.15,2013-08-28 17:30:00,
2013-08-28 13:35:00,77.9,70.5,29.98,SW,228,0.0,5.0,78,0.00,,,0.01,Wunderground v.1.15,2013-08-28 17:35:00,
2013-08-28 13:45:00,77.9,70.9,29.98,SW,228,0.0,5.0,79,0.00,,,0.01,Wunderground v.1.15,2013-08-28 17:45:00,
2013-08-28 13:50:00,77.6,70.9,29.98,SW,221,0.0,5.0,80,0.00,,,0.01,Wunderground v.1.15,2013-08-28 17:50:00,
2013-08-28 13:55:00,77.7,70.7,29.98,NW,308,0.0,5.0,79,0.00,,,0.01,Wunderground v.1.15,2013-08-28 17:55:00,
2013-08-28 14:00:00,77.9,70.9,29.98,SW,231,0.0,5.0,79,0.00,,,0.01,Wunderground v.1.15,2013-08-28 18:00:00,
2013-08-28 14:05:00,77.7,70.7,29.97,WSW,238,0.0,5.0,79,0.00,,,0.01,Wunderground v.1.15,2013-08-28 18:05:00,
2013-08-28 14:10:00,77.5,70.5,29.97,WSW,239,0.0,5.0,79,0.00,,,0.01,Wunderground v.1.15,2013-08-28 18:10:00,
2013-08-28 14:15:00,77.7,71.0,29.97,WSW,239,0.0,5.0,80,0.00,,,0.01,Wunderground v.1.15,2013-08-28 18:15:00,
2013-08-28 14:20:00,78.3,72.0,29.97,WSW,245,0.0,5.0,81,0.00,,,0.01,Wunderground v.1.15,2013-08-28 18:20:00,
2013-08-28 14:25:00,78.8,70.6,29.97,SE,131,0.0,5.0,76,0.00,,,0.01,Wunderground v.1.15,2013-08-28 18:25:00,
2013-08-28 14:30:00,78.8,70.2,29.97,SW,235,0.0,5.0,75,0.00,,,0.01,Wunderground v.1.15,2013-08-28 18:30:00,
2013-08-28 14:35:00,78.5,70.3,29.96,WSW,238,0.0,5.0,76,0.00,,,0.01,Wunderground v.1.15,2013-08-28 18:35:00,
2013-08-28 14:45:00,78.3,70.5,29.96,SE,136,0.0,5.0,77,0.00,,,0.01,Wunderground v.1.15,2013-08-28 18:45:00,
2013-08-28 14:50:00,78.6,70.8,29.96,SW,226,0.0,5.0,77,0.00,,,0.01,Wunderground v.1.15,2013-08-28 18:50:00,
2013-08-28 14:55:00,78.5,71.1,29.95,SW,232,0.0,5.0,78,0.00,,,0.01,Wunderground v.1.15,2013-08-28 18:55:00,
2013-08-28 15:00:00,78.5,71.4,29.95,WSW,239,0.0,5.0,79,0.00,,,0.01,Wunderground v.1.15,2013-08-28 19:00:00,
2013-08-28 15:05:00,78.8,71.0,29.95,SW,235,0.0,5.0,77,0.00,,,0.01,Wunderground v.1.15,2013-08-28 19:05:00,
2013-08-28 15:15:00,80.1,71.1,29.95,West,281,0.0,5.0,74,0.00,,,0.01,Wunderground v.1.15,2013-08-28 19:15:00,
2013-08-28 15:20:00,80.0,70.2,29.94,SW,236,0.0,5.0,72,0.00,,,0.01,Wunderground v.1.15,2013-08-28 19:20:00,
2013-08-28 15:25:00,80.0,70.6,29.94,SW,232,0.0,5.0,73,0.00,,,0.01,Wunderground v.1.15,2013-08-28 19:25:00,
2013-08-28 15:30:00,80.0,70.6,29.94,South,183,0.0,5.0,73,0.00,,,0.01,Wunderground v.1.15,2013-08-28 19:30:00,
2013-08-28 15:35:00,80.1,69.8,29.94,South,172,0.0,5.0,71,0.00,,,0.01,Wunderground v.1.15,2013-08-28 19:35:00,
2013-08-28 15:40:00,80.7,70.4,29.94,SW,214,0.0,5.0,71,0.00,,,0.01,Wunderground v.1.15,2013-08-28 19:40:00,
2013-08-28 15:45:00,80.2,69.9,29.94,SW,233,0.0,5.0,71,0.00,,,0.01,Wunderground v.1.15,2013-08-28 19:45:00,
2013-08-28 15:50:00,79.6,70.6,29.94,WNW,298,0.0,5.0,74,0.00,,,0.01,Wunderground v.1.15,2013-08-28 19:50:00,
2013-08-28 15:55:00,79.5,70.1,29.93,WSW,255,0.0,5.0,73,0.00,,,0.01,Wunderground v.1.15,2013-08-28 19:55:00,
2013-08-28 16:00:00,79.0,70.4,29.93,WSW,257,0.0,5.0,75,0.00,,,0.01,Wunderground v.1.15,2013-08-28 20:00:00,
2013-08-28 16:15:00,78.1,69.9,29.93,WSW,245,0.0,0.0,76,0.00,,,0.01,Wunderground v.1.15,2013-08-28 20:15:00,
2013-08-28 16:20:00,78.2,70.4,29.93,West,277,0.0,0.0,77,0.00,,,0.01,Wunderground v.1.15,2013-08-28 20:20:00,
2013-08-28 16:30:00,78.4,69.8,29.93,SW,226,0.0,0.0,75,0.00,,,0.01,Wunderground v.1.15,2013-08-28 20:30:00,
2013-08-28 16:35:00,78.6,70.4,29.93,West,274,0.0,0.0,76,0.00,,,0.01,Wunderground v.1.15,2013-08-28 20:35:00,
2013-08-28 16:40:00,78.6,70.4,29.93,SW,221,0.0,0.0,76,0.00,,,0.01,Wunderground v.1.15,2013-08-28 20:40:00,
2013-08-28 16:45:00,78.4,70.6,29.93,SW,229,0.0,0.0,77,0.00,,,0.01,Wunderground v.1.15,2013-08-28 20:45:00,
2013-08-28 16:50:00,78.1,70.3,29.93,West,276,0.0,0.0,77,0.00,,,0.01,Wunderground v.1.15,2013-08-28 20:50:00,
2013-08-28 16:55:00,77.8,70.0,29.92,West,264,0.0,0.0,77,0.00,,,0.01,Wunderground v.1.15,2013-08-28 20:55:00,
2013-08-28 17:00:00,77.5,69.7,29.92,West,263,0.0,0.0,77,0.00,,,0.01,Wunderground v.1.15,2013-08-28 21:00:00,
2013-08-28 17:05:00,77.3,70.3,29.92,West,263,0.0,3.0,79,0.00,,,0.01,Wunderground v.1.15,2013-08-28 21:05:00,
2013-08-28 17:10:00,76.8,70.2,29.92,NW,314,0.0,3.0,80,0.00,,,0.01,Wunderground v.1.15,2013-08-28 21:10:00,
2013-08-28 17:15:00,76.5,70.2,29.92,WSW,239,0.0,3.0,81,0.00,,,0.01,Wunderground v.1.15,2013-08-28 21:15:00,
2013-08-28 17:20:00,76.4,70.1,29.92,WSW,239,0.0,3.0,81,0.00,,,0.01,Wunderground v.1.15,2013-08-28 21:20:00,
2013-08-28 17:25:00,76.2,69.9,29.92,South,176,0.0,3.0,81,0.00,,,0.01,Wunderground v.1.15,2013-08-28 21:25:00,
2013-08-28 17:30:00,76.2,69.9,29.92,SW,231,0.0,3.0,81,0.00,,,0.01,Wunderground v.1.15,2013-08-28 21:30:00,
2013-08-28 17:35:00,76.3,70.4,29.92,WNW,283,0.0,3.0,82,0.00,,,0.01,Wunderground v.1.15,2013-08-28 21:35:00,
2013-08-28 17:40:00,76.1,70.6,29.92,West,278,0.0,3.0,83,0.00,,,0.01,Wunderground v.1.15,2013-08-28 21:40:00,
2013-08-28 17:45:00,75.8,70.3,29.92,NW,304,0.0,3.0,83,0.00,,,0.01,Wunderground v.1.15,2013-08-28 21:45:00,
2013-08-28 17:50:00,75.8,70.3,29.92,WNW,302,0.0,3.0,83,0.00,,,0.01,Wunderground v.1.15,2013-08-28 21:50:00,
2013-08-28 17:55:00,75.8,70.3,29.92,NW,304,0.0,3.0,83,0.00,,,0.01,Wunderground v.1.15,2013-08-28 21:55:00,
2013-08-28 18:00:00,75.7,69.8,29.92,NW,304,0.0,3.0,82,0.00,,,0.01,Wunderground v.1.15,2013-08-28 22:00:00,
2013-08-28 18:05:00,75.4,69.9,29.92,WNW,288,0.0,3.0,83,0.00,,,0.01,Wunderground v.1.15,2013-08-28 22:05:00,
2013-08-28 18:10:00,75.3,70.1,29.91,WNW,288,0.0,3.0,84,0.00,,,0.01,Wunderground v.1.15,2013-08-28 22:10:00,
2013-08-28 18:15:00,75.3,70.1,29.91,WNW,288,0.0,3.0,84,0.00,,,0.01,Wunderground v.1.15,2013-08-28 22:15:00,
2013-08-28 18:20:00,75.0,69.8,29.91,WNW,288,0.0,3.0,84,0.00,,,0.01,Wunderground v.1.15,2013-08-28 22:20:00,
2013-08-28 18:25:00,74.9,70.4,29.91,WNW,288,0.0,3.0,86,0.00,,,0.01,Wunderground v.1.15,2013-08-28 22:25:00,
2013-08-28 18:30:00,74.6,69.8,29.91,WNW,288,0.0,3.0,85,0.00,,,0.01,Wunderground v.1.15,2013-08-28 22:30:00,
2013-08-28 18:35:00,74.3,69.1,29.91,WNW,289,0.0,3.0,84,0.00,,,0.01,Wunderground v.1.15,2013-08-28 22:35:00,
2013-08-28 18:40:00,74.2,70.1,29.91,WNW,290,0.0,3.0,87,0.00,,,0.01,Wunderground v.1.15,2013-08-28 22:40:00,
2013-08-28 18:50:00,73.6,69.8,29.92,WNW,297,0.0,3.0,88,0.00,,,0.01,Wunderground v.1.15,2013-08-28 22:50:00,
2013-08-28 18:55:00,73.3,69.5,29.91,WNW,297,0.0,3.0,88,0.00,,,0.01,Wunderground v.1.15,2013-08-28 22:55:00,
2013-08-28 19:00:00,73.1,69.7,29.91,WNW,297,0.0,3.0,89,0.00,,,0.01,Wunderground v.1.15,2013-08-28 23:00:00,
2013-08-28 19:05:00,73.0,69.6,29.91,WNW,298,0.0,3.0,89,0.00,,,0.01,Wunderground v.1.15,2013-08-28 23:05:00,
2013-08-28 19:10:00,72.8,69.7,29.92,WNW,298,0.0,3.0,90,0.00,,,0.01,Wunderground v.1.15,2013-08-28 23:10:00,
2013-08-28 19:15:00,72.5,69.1,29.92,WNW,297,0.0,3.0,89,0.00,,,0.01,Wunderground v.1.15,2013-08-28 23:15:00,
2013-08-28 19:20:00,72.3,69.2,29.92,WNW,297,0.0,3.0,90,0.00,,,0.01,Wunderground v.1.15,2013-08-28 23:20:00,
2013-08-28 19:25:00,72.1,69.0,29.92,WNW,298,0.0,3.0,90,0.00,,,0.01,Wunderground v.1.15,2013-08-28 23:25:00,
2013-08-28 19:30:00,71.8,68.7,29.92,WNW,297,0.0,3.0,90,0.00,,,0.01,Wunderground v.1.15,2013-08-28 23:30:00,
2013-08-28 19:35:00,71.6,68.5,29.92,WNW,297,0.0,3.0,90,0.00,,,0.01,Wunderground v.1.15,2013-08-28 23:35:00,
2013-08-28 19:40:00,71.4,68.6,29.92,WNW,298,0.0,3.0,91,0.00,,,0.01,Wunderground v.1.15,2013-08-28 23:40:00,
2013-08-28 19:45:00,71.3,68.5,29.92,WNW,297,0.0,3.0,91,0.00,,,0.01,Wunderground v.1.15,2013-08-28 23:45:00,
2013-08-28 19:50:00,71.1,68.3,29.92,WNW,298,0.0,3.0,91,0.00,,,0.01,Wunderground v.1.15,2013-08-28 23:50:00,
2013-08-28 19:55:00,70.9,68.1,29.92,WNW,297,0.0,3.0,91,0.00,,,0.01,Wunderground v.1.15,2013-08-28 23:55:00,
2013-08-28 20:00:00,70.8,68.4,29.93,WNW,297,0.0,3.0,92,0.00,,,0.01,Wunderground v.1.15,2013-08-29 00:00:00,
2013-08-28 20:05:00,70.7,68.3,29.93,WNW,298,0.0,3.0,92,0.00,,,0.01,Wunderground v.1.15,2013-08-29 00:05:00,
2013-08-28 20:10:00,70.6,68.2,29.93,WNW,298,0.0,3.0,92,0.00,,,0.01,Wunderground v.1.15,2013-08-29 00:10:00,
2013-08-28 20:15:00,70.3,67.9,29.93,WNW,297,0.0,3.0,92,0.00,,,0.01,Wunderground v.1.15,2013-08-29 00:15:00,
2013-08-28 20:20:00,70.2,67.8,29.93,WNW,297,0.0,3.0,92,0.00,,,0.01,Wunderground v.1.15,2013-08-29 00:20:00,
2013-08-28 20:25:00,70.1,67.7,29.93,WNW,298,0.0,3.0,92,0.00,,,0.01,Wunderground v.1.15,2013-08-29 00:25:00,
2013-08-28 20:30:00,69.8,67.4,29.93,WNW,298,0.0,3.0,92,0.00,,,0.01,Wunderground v.1.15,2013-08-29 00:30:00,
2013-08-28 21:30:00,68.7,66.9,29.93,NW,324,0.0,0.0,94,0.00,,,0.01,Wunderground v.1.15,2013-08-29 01:30:00,
2013-08-28 21:40:00,68.7,67.2,29.94,NW,324,0.0,0.0,95,0.00,,,0.01,Wunderground v.1.15,2013-08-29 01:40:00,
2013-08-28 21:45:00,68.8,67.3,29.94,NW,323,0.0,0.0,95,0.00,,,0.01,Wunderground v.1.15,2013-08-29 01:45:00,
2013-08-28 21:50:00,68.8,67.3,29.94,NW,323,0.0,0.0,95,0.00,,,0.01,Wunderground v.1.15,2013-08-29 01:50:00,
2013-08-28 21:55:00,68.8,67.3,29.94,West,278,0.0,0.0,95,0.00,,,0.01,Wunderground v.1.15,2013-08-29 01:55:00,
2013-08-28 22:00:00,68.9,67.4,29.94,WNW,284,0.0,0.0,95,0.00,,,0.01,Wunderground v.1.15,2013-08-29 02:00:00,
2013-08-28 22:05:00,69.0,67.2,29.94,West,281,0.0,0.0,94,0.00,,,0.01,Wunderground v.1.15,2013-08-29 02:05:00,
2013-08-28 22:10:00,69.0,67.2,29.94,WNW,282,0.0,0.0,94,0.00,,,0.01,Wunderground v.1.15,2013-08-29 02:10:00,
2013-08-28 22:15:00,69.0,67.2,29.94,West,281,0.0,0.0,94,0.00,,,0.01,Wunderground v.1.15,2013-08-29 02:15:00,
2013-08-28 22:25:00,69.1,67.3,29.95,West,281,0.0,0.0,94,0.00,,,0.01,Wunderground v.1.15,2013-08-29 02:25:00,
2013-08-28 22:30:00,69.1,67.3,29.94,West,281,0.0,0.0,94,0.00,,,0.01,Wunderground v.1.15,2013-08-29 02:30:00,
2013-08-28 22:35:00,69.0,67.2,29.94,West,281,0.0,0.0,94,0.00,,,0.01,Wunderground v.1.15,2013-08-29 02:35:00,
2013-08-28 22:40:00,69.0,67.2,29.94,West,281,0.0,0.0,94,0.00,,,0.01,Wunderground v.1.15,2013-08-29 02:40:00,
2013-08-28 22:45:00,68.9,67.1,29.94,West,281,0.0,0.0,94,0.00,,,0.01,Wunderground v.1.15,2013-08-29 02:45:00,
2013-08-28 22:50:00,68.9,67.4,29.94,West,281,0.0,0.0,95,0.00,,,0.01,Wunderground v.1.15,2013-08-29 02:50:00,
2013-08-28 22:55:00,68.8,67.3,29.94,West,281,0.0,0.0,95,0.00,,,0.01,Wunderground v.1.15,2013-08-29 02:55:00,
2013-08-28 23:00:00,68.8,67.3,29.94,West,281,0.0,0.0,95,0.00,,,0.01,Wunderground v.1.15,2013-08-29 03:00:00,
2013-08-28 23:05:00,68.8,67.3,29.94,West,281,0.0,0.0,95,0.00,,,0.01,Wunderground v.1.15,2013-08-29 03:05:00,
2013-08-28 23:10:00,68.7,67.2,29.93,West,281,0.0,0.0,95,0.00,,,0.01,Wunderground v.1.15,2013-08-29 03:10:00,
2013-08-28 23:15:00,68.6,67.1,29.94,WNW,300,0.0,0.0,95,0.00,,,0.01,Wunderground v.1.15,2013-08-29 03:15:00,
2013-08-28 23:20:00,68.6,67.1,29.94,WNW,301,0.0,0.0,95,0.00,,,0.01,Wunderground v.1.15,2013-08-29 03:20:00,
2013-08-28 23:25:00,68.5,67.0,29.94,WNW,301,0.0,0.0,95,0.00,,,0.01,Wunderground v.1.15,2013-08-29 03:25:00,
2013-08-28 23:30:00,68.5,67.0,29.94,WNW,300,0.0,0.0,95,0.00,,,0.01,Wunderground v.1.15,2013-08-29 03:30:00,
2013-08-28 23:35:00,68.5,67.0,29.94,WNW,293,0.0,0.0,95,0.00,,,0.01,Wunderground v.1.15,2013-08-29 03:35:00,
2013-08-28 23:40:00,68.5,67.3,29.93,WNW,293,0.0,0.0,96,0.00,,,0.01,Wunderground v.1.15,2013-08-29 03:40:00,
2013-08-28 23:45:00,68.5,67.3,29.93,WNW,294,0.0,0.0,96,0.00,,,0.01,Wunderground v.1.15,2013-08-29 03:45:00,
2013-08-28 23:50:00,68.4,67.2,29.93,WNW,293,0.0,0.0,96,0.00,,,0.01,Wunderground v.1.15,2013-08-29 03:50:00,